Tracking 20712 objects as of 28-May-2020
HD Live streaming from Space Station
objects crossing your sky now

FENGYUN 1C DEB

Track FENGYUN 1C DEB now!
10-day predictions


NORAD ID: 37060
Int'l Code: 1999-025EEU
Perigee: 848.0 km
Apogee: 968.7 km
Inclination: 99.3 °
Period: 103.0 minutes
Semi major axis: 7279 km
RCS: 0.0093 m2 (small)
Launch date: May 10, 1999
Source: People's Republic of China (PRC)
Launch site: Taiyaun Space Center, China (TSC)

Note: This is SATELLITE DEBRIS
aabbcc
Your satellite tracking list
Your tracking list is empty




NASA's NSSDC Master Catalog

Two Line Element Set (TLE):
1 37060U 99025EEU 20142.86040030 -.00000041  00000-0  33363-5 0  9990
2 37060  99.3228 161.5308 0082882 154.4559 206.0734 13.97855158636397
Source of the keplerian elements: AFSPC